CW2103 Weather Reports


Display with metric or nautical units.
time (UTC)temp
F
wind
direction
speed
MPH
gust
MPH
rain 1hr
in
rain 24hr
in
rain mn
in
humidity
%
barometer
mb
20190122080509 37 41 12.0 13.0 0.00 0.00 0.00 62 1010.5
20190122075509 37 63 4.0 14.0 0.00 0.00 0.00 62 1010.6
20190122073508 37 10 8.0 14.0 0.00 0.00 0.00 63 1010.8
20190122072508 37 28 7.0 12.0 0.00 0.00 0.00 63 1010.9
20190122070508 36 45 8.0 13.0 0.00 0.00 0.00 64 1011.0
20190122064508 36 1 7.0 12.0 0.00 0.00 0.00 64 1011.0
20190122063507 36 15 5.0 12.0 0.00 0.00 0.00 64 1011.1
20190122062507 36 360 9.0 13.0 0.00 0.00 0.00 64 1011.0
20190122061508 36 15 7.0 12.0 0.00 0.00 0.00 64 1011.0
20190122060507 36 29 3.0 11.0 0.00 0.00 0.00 65 1011.0
20190122055508 36 15 9.0 12.0 0.00 0.00 0.00 65 1011.1
20190122054507 36 350 9.0 10.0 0.00 0.00 0.00 65 1011.1
20190122051507 36 59 9.0 10.0 0.00 0.00 0.00 64 1011.2
20190122045507 36 55 10.0 10.0 0.00 0.00 0.00 64 1011.5
20190122042506 37 48 3.0 10.0 0.00 0.00 0.00 64 1011.6
20190122041506 37 10 10.0 10.0 0.00 0.00 0.00 64 1011.7
20190122040506 37 360 10.0 13.0 0.00 0.00 0.00 64 1011.8
20190122035506 37 10 5.0 10.0 0.00 0.00 0.00 64 1012.0
20190122033505 37 15 5.0 12.0 0.00 0.00 0.00 64 1012.1
20190122032506 37 44 7.0 10.0 0.00 0.00 0.00 64 1012.2
20190122031505 37 39 4.0 13.0 0.00 0.00 0.00 64 1012.3
20190122030505 37 34 5.0 10.0 0.00 0.00 0.00 65 1012.4
20190122025506 37 10 5.0 13.0 0.00 0.00 0.00 65 1012.5
20190122024504 37 61 4.0 12.0 0.00 0.00 0.00 65 1012.7
20190122023504 36 63 8.0 12.0 0.00 0.00 0.00 65 1012.9
20190122022505 36 28 6.0 9.0 0.00 0.00 0.00 65 1013.1
20190122015505 37 28 8.0 11.0 0.00 0.00 0.00 65 1013.5
20190122014503 37 54 9.0 13.0 0.00 0.00 0.00 65 1013.6
20190122013504 37 47 5.0 11.0 0.00 0.00 0.00 65 1013.8
20190122011503 37 45 6.0 11.0 0.00 0.00 0.00 65 1013.9
20190122004503 37 10 7.0 11.0 0.00 0.00 0.00 65 1014.1
20190122001502 37 30 4.0 13.0 0.00 0.00 0.00 64 1014.5
20190122000502 37 39 9.0 9.0 0.00 0.00 0.00 64 1014.5
20190121234503 37 29 8.0 10.0 0.00 0.00 0.00 63 1014.8
20190121232503 38 15 2.0 12.0 0.00 0.00 0.00 62 1014.9
20190121230501 38 38 8.0 14.0 0.00 0.00 0.00 62 1014.9
20190121225503 38 50 8.0 10.0 0.00 0.00 0.00 62 1015.0
20190121223501 38 22 7.0 12.0 0.00 0.00 0.00 63 1015.1
20190121222502 38 38 11.0 11.0 0.00 0.00 0.00 63 1015.1
20190121221502 38 43 7.0 13.0 0.00 0.00 0.00 63 1015.2
20190121220500 38 33 8.0 12.0 0.00 0.00 0.00 62 1015.2
20190121215501 38 15 7.0 14.0 0.00 0.00 0.00 62 1015.3
20190121214501 38 28 4.0 11.0 0.00 0.00 0.00 63 1015.3
20190121213500 38 36 12.0 13.0 0.00 0.00 0.00 62 1015.4
20190121212500 38 352 5.0 11.0 0.00 0.00 0.00 62 1015.4
20190121211500 38 39 10.0 11.0 0.00 0.00 0.00 63 1015.5
20190121210500 38 34 5.0 14.0 0.00 0.00 0.00 62 1015.6
20190121205501 38 21 9.0 12.0 0.00 0.00 0.00 62 1015.6
20190121204459 38 35 10.0 12.0 0.00 0.00 0.00 62 1015.7
20190121201459 38 40 10.0 10.0 0.00 0.00 0.00 62 1015.7
20190121195459 38 15 5.0 9.0 0.00 0.00 0.00 62 1015.7
20190121193459 38 10 3.0 13.0 0.00 0.00 0.00 61 1015.7
20190121191458 38 38 4.0 11.0 0.00 0.00 0.00 62 1015.7
20190121190458 38 21 7.0 9.0 0.00 0.00 0.00 62 1015.8
20190121185458 38 23 8.0 16.0 0.00 0.00 0.00 61 1015.8
20190121180457 38 32 10.0 10.0 0.00 0.00 0.00 61 1015.7
20190121174457 38 33 4.0 10.0 0.00 0.00 0.00 61 1015.7
20190121171456 38 42 5.0 10.0 0.00 0.00 0.00 60 1015.6
20190121170457 38 356 5.0 17.0 0.00 0.00 0.00 60 1015.6
20190121161456 38 20 7.0 11.0 0.00 0.00 0.00 59 1015.6
20190121160457 38 62 4.0 10.0 0.00 0.00 0.00 59 1015.6
20190121154455 39 50 3.0 13.0 0.00 0.00 0.00 58 1015.6
20190121152456 39 59 10.0 18.0 0.00 0.00 0.00 58 1015.5
20190121151455 39 72 3.0 10.0 0.00 0.00 0.00 58 1015.5
20190121150456 40 79 2.0 15.0 0.00 0.00 0.00 57 1015.5
20190121145456 40 43 5.0 15.0 0.00 0.00 0.00 57 1015.7
20190121144455 40 69 9.0 9.0 0.00 0.00 0.00 57 1015.6
20190121143455 40 15 1.0 10.0 0.00 0.00 0.00 58 1015.7
20190121141454 40 79 9.0 12.0 0.00 0.00 0.00 57 1015.7
20190121140455 40 26 8.0 11.0 0.00 0.00 0.00 56 1015.7
20190121135455 40 41 10.0 19.0 0.00 0.00 0.00 55 1015.6
20190121133455 41 50 10.0 17.0 0.00 0.00 0.00 54 1015.7
20190121132453 41 66 10.0 16.0 0.00 0.00 0.00 53 1015.7
20190121131453 41 61 5.0 17.0 0.00 0.00 0.00 54 1015.8
20190121124453 41 49 4.0 14.0 0.00 0.00 0.00 54 1016.2
20190121121453 42 46 13.0 19.0 0.00 0.00 0.00 53 1016.5
20190121120452 41 61 10.0 16.0 0.00 0.00 0.00 54 1016.6
20190121115453 41 81 9.0 13.0 0.00 0.00 0.00 54 1016.6
20190121114452 41 60 5.0 13.0 0.00 0.00 0.00 55 1016.6
20190121112453 41 27 8.0 12.0 0.00 0.00 0.00 55 1016.8
20190121111452 40 15 4.0 13.0 0.00 0.00 0.00 56 1016.9
20190121101451 39 73 5.0 16.0 0.00 0.00 0.00 58 1017.6
20190121100451 39 69 9.0 16.0 0.00 0.00 0.00 57 1017.7
20190121095451 40 29 6.0 14.0 0.00 0.00 0.00 58 1017.7
20190121094451 40 46 10.0 12.0 0.00 0.00 0.00 58 1017.7
20190121093452 39 50 5.0 10.0 0.00 0.00 0.00 59 1017.9
20190121091450 39 58 10.0 16.0 0.00 0.00 0.00 60 1017.8
20190121085451 38 5 5.0 16.0 0.00 0.00 0.00 61 1017.8